Location: Kumla
(59.1265°N, 15.1401°E)
Time: 05:47:54
(UTC+01:00)

Vanguard 2 Rocket - Pass Details

Date: 05 December 2023
Orbit: 555 x 3309 km, 32.9° (Epoch: 03 March)

Event Time Altitude Azimuth Distance (km) Brightness Sun altitude
Rises 16:31:34 0° 240° (WSW) 6,914 13.8 -9.7°
Reaches altitude 10° 16:37:00 10° 230° (SW) 6,111 12.6 -10.3°
Maximum altitude 16:51:58 28° 182° (S) 4,826 10.8 -12.0°
Drops below altitude 10° 17:05:50 10° 133° (SE) 5,655 10.7 -13.7°
Sets 17:10:35 0° 122° (ESE) 6,338 10.8 -14.2°
